Location: Blanot
(47.1713°N, 4.2340°E)
Time: 10:44:49
(UTC+00:00)

Meteor 1-25 Rocket - Pass Details

Date: 14 July 2020
Orbit: 837 x 891 km, 81.2° (Epoch: 05 August)

Event Time Altitude Azimuth Distance (km) Brightness Sun altitude
Exits shadow 00:47:42 38° 191° (SSW) 1,263 4.6 -19.9°
Maximum altitude 00:49:56 88° 277° (W) 851 4.1 -19.8°
Drops below altitude 10° 00:55:33 10° 11° (N) 2,466 7.8 -19.6°
Sets 00:57:57 0° 12° (NNE) 3,403 9.0 -19.5°
